Погода в Автурах

Россия / Чеченская Республика     43°09′47″N   46°00′11″E
В апреле 2022 года жителям России запретили посещать сайт meteo.paraplan.net по решению Генеральной прокуратуры. Аудитория сайта уменьшилась в 10 раз. Владельцы сайта не видят смысла в поддержке погодного сервера в таких условиях. Сайт будет закрыт в октябре.
темп.,
°C
ветер,
м/с
пор.,
м/с
влажн.,
%
обл.,
%
осадки,
мм/ч
давл.,
гПа
погр.,
м
3 октября, пн
пн300:00+18юв115877 0.0 100319
03:00+18ююз0049100 0.0 100216
06:00+17юз114996 0.0 100413
09:00+23з81153100 0.0 10091179
12:00+23з7955100 0.3 10111614
15:00+20зюз5867100 0.5 1013613
18:00+19зюз3573100 0.1 1015253
21:00+18зюз227798 0.2 1016149
4 октября, вт
вт400:00+16юз118493 0.0 101566
03:00+15юз228849 0.0 101547
06:00+15вюв018625 0.0 101459
09:00+20св226551 0.0 1014760
12:00+23ссв3251100 0.0 10131098
15:00+25с224797 0.0 10131141
18:00+21св246499 0.0 1016104
21:00+18вюв017497 0.0 101741
5 октября, ср
ср500:00+17ююз1177100 0.0 101822
03:00+16ююз1181100 0.0 101820
06:00+15зюз1186100 0.0 101936
09:00+21з226293 0.0 1019670
12:00+25ссз434630 0.0 10191423
15:00+24зсз5550100 0.0 10201367
18:00+20зсз4670100 0.0 1022384
21:00+18з5785100 0.5 1023627
6 октября, чт
чт600:00+17з2482100 0.4 1023491
03:00+16з4788100 1.2 1024691
06:00+15зсз2488100 1.3 1025451
09:00+16з1285100 1.6 1025310
12:00+16ссз2280100 0.2 1025525
15:00+16сз1281100 0.6 1024255
18:00+15сз1284100 0.3 102695
21:00+15зсз0086100 0.4 102683
7 октября, пт
пт700:00+14вюв0090100 0.2 102662
03:00+14св0193100 0.8 102575
06:00+14всв2394100 2.4 1026199
09:00+14всв2487100 2.7 1026278
12:00+15в358099 0.0 1025444
15:00+18всв456441 0.0 1023888
18:00+16всв367161 0.0 1024240
21:00+14св128054 0.0 102476